[[{"header":{"parameterUnit":"m.s-1","parameterCategory":1,"la1":30.2991,"la2":30.254,"lo1":-89.0895,"lo2":-89.0444,"dy":0.0017,"dx":0.0017,"nx":28,"ny":28,"refTime":"2025-07-17T21:00:00:Z","depth":0,"parameterNumber":2,"parameterNumberName":"U-component_of_WINDS"},"data":[0,0,0,0,0,0,0,0,0,0,0,0,0,0,0,0,0,0,0,0,0,0,0,0,0,0,0,0,0,0,0,0,0,0,0,0,0,0,0,0,0,0,0,0,0,0,0,0,0,0,0,0,0,0,0,0,0,0,0.9109,0.9108,0,0.8987,0.8986,0.8984,0.8836,0.8834,0.8832,0.883,0.8703,0.8702,0.8701,0,0,0,0,0,0,0,0,0,0,0,0,0,0.9213,0.9212,0.9109,0.9107,0.9106,0.8987,0.8985,0.8984,0.8837,0.8834,0.8831,0.8829,0.8704,0.8702,0.8701,0,0,0,0,0,0,0,0,0,0,0,0,0,0.9137,0.9212,0.9109,0.9018,0.9009,0.8987,0.8985,0.8983,0.8837,0.8834,0.883,0.8827,0.8704,0.8702,0.8701,0.8758,0,0,0.8695,0.8694,0,0,0,0,0,0,0,0,0.9142,0.9134,0.9033,0.9025,0.9014,0.8923,0.8976,0.8908,0.8838,0.8903,0.883,0.8826,0.8779,0.8771,0.8756,0.8752,0.8747,0.8695,0.8694,0.8693,0.8692,0,0,0,0,0,0,0,0.9147,0.9138,0.9061,0.9032,0.902,0.8983,0.8969,0.8962,0.8862,0.8897,0.8886,0.8873,0.8773,0.8758,0.8752,0.8745,0.8695,0.8693,0.8692,0.8691,0.8781,0.8785,0,0,0,0,0,0,0.9166,0.9143,0.9064,0.9057,0.9071,0.8984,0.8968,0.8956,0.8861,0.8844,0.8876,0.8867,0.8763,0.8754,0.8747,0.8806,0.8693,0.8691,0.869,0.8778,0.8782,0.8786,0,0,0,0,0,0,0.9169,0.9161,0.9069,0.9097,0.9083,0.8986,0.8974,0.8955,0.8939,0.8846,0.8827,0.8879,0.876,0.8749,0.8756,0.88,0.869,0.8689,0.8774,0.8779,0.8784,0.8928,0,0,0,0,0,0,0.9173,0.9163,0.9184,0.9099,0.9082,0.9082,0.8977,0.8955,0.8937,0.8923,0.8843,0.8827,0.8756,0.876,0.8754,0.8795,0.8687,0.8769,0.8776,0.8782,0.8919,0.8937,0.8953,0,0,0,0,0,0.9177,0.9229,0.9186,0.9177,0.9106,0.9085,0.9075,0.8993,0.8941,0.8961,0.8901,0.8829,0.8797,0.8762,0.8754,0.8796,0.8766,0.8774,0.8782,0.8911,0.8933,0.8953,0,0,0,0,0,0,0.9321,0.9216,0.9167,0.9193,0.9149,0.906,0.9083,0.902,0.8989,0.8977,0.8876,0.8859,0.8878,0.8838,0.8801,0.8846,0.8771,0.8778,0.8871,0.8892,0.8909,0.8918,0.8686,0,0,0,0,0,0.9357,0.9348,0.9257,0.9289,0.9269,0.9181,0.9168,0.9108,0.9058,0.9039,0.8979,0.8933,0.8912,0.89,0.8875,0.8913,0.8892,0.8937,0.8955,0.8969,0.8976,0.8991,0.9009,0.8812,0.8812,0.8811,0,0,0.9428,0.937,0.9371,0.9316,0.9275,0.9268,0.9165,0.9162,0.9156,0.9038,0.904,0.8996,0.8937,0.896,0.8966,0.8926,0.9026,0.8979,0.8992,0.899,0.9001,0.902,0.9036,0.8817,0.8816,0.8815,0,0,0.9555,0.9511,0.9532,0.9493,0.9432,0.9373,0.9379,0.9299,0.9264,0.9266,0.9177,0.9168,0.9134,0.9096,0.9072,0.9185,0.9118,0.918,0.927,0.9286,0.9301,0.9314,0.9353,0.9369,0.9187,0.9188,0.9188,0,0.9652,0.9638,0.9551,0.9553,0.9531,0.9425,0.9445,0.9412,0.9346,0.9333,0.929,0.9245,0.9198,0.9209,0.9237,0.9222,0.9224,0.9188,0.9306,0.9319,0.933,0.9365,0.9381,0.9196,0.9195,0.9194,0.9193,0,0.9759,0.9751,0.9775,0.9715,0.9696,0.9707,0.9621,0.9613,0.9556,0.9501,0.9503,0.9444,0.9405,0.9404,0.9348,0.9407,0.9383,0.9325,0.9247,0.9358,0.939,0.9403,0.9207,0.9204,0.9202,0.92,0,0,0.9971,0.9863,0.9873,0.9844,0.977,0.9761,0.9768,0.9731,0.9725,0.9684,0.9685,0.966,0.9605,0.9578,0.9517,0.9532,0.9623,0.947,0.9467,0.9499,0.9683,0.9726,0.9743,0.9579,0.9581,0.9583,0.9687,0,1.0082,1.0087,1.001,1.0036,1.0026,0.9926,0.9932,0.9887,0.9836,0.9821,0.9764,0.9747,0.9677,0.966,0.967,0.961,0.9659,0.9602,0.9578,0.9579,0.9594,0.976,0.9806,0.9906,0.9699,0.9701,0.9703,0,1.0212,1.0179,1.0205,1.0129,1.0122,1.0128,1.0087,1.0074,1.0021,0.9983,0.9954,0.9885,0.9885,0.9813,0.9811,0.9775,0.9761,0.973,0.9732,0.9725,0.9646,0.9756,0.9937,0.9951,0.9722,0.972,0.9719,0,1.0362,1.0324,1.0333,1.0312,1.0225,1.0231,1.0195,1.0138,1.0121,1.0085,1.0073,1.0038,1.0019,0.9993,0.9916,0.9871,0.9922,0.9844,0.9889,0.9892,0.9903,0.9903,1.0082,0.9898,0.9898,0.9898,0.9897,0,1.0493,1.0512,1.0399,1.0405,1.0424,1.0334,1.0355,1.0309,1.0259,1.0254,1.0166,1.0163,1.0062,1.0047,0.9987,0.9994,0.9986,0.9954,0.9938,0.9961,0.9965,0.9949,0.9939,0.9902,0.9901,0.99,0.9899,0,1.0662,1.0588,1.0592,1.0509,1.0489,1.0506,1.0434,1.0436,1.0381,1.0375,1.0369,1.0282,1.026,1.0181,1.0139,1.0099,1.0124,1.0093,1.0142,1.0131,1.018,1.0176,1.0353,1.0371,1.0179,1.0181,1.0182,0,1.0749,1.0762,1.0681,1.0671,1.0639,1.0625,1.0606,1.052,1.0504,1.0445,1.0454,1.0425,1.0397,1.0367,1.0299,1.0267,1.0233,1.0298,1.0228,1.025,1.0232,1.0231,1.0231,1.0312,1.0315,1.0317,1.0319,0,1.0912,1.0874,1.0852,1.0817,1.0798,1.0766,1.0729,1.0726,1.0629,1.0616,1.0593,1.0572,1.053,1.0502,1.0459,1.042,1.0353,1.0342,1.035,1.0373,1.04,1.0384,1.0181,1.0338,1.0336,1.0334,1.0333,1.0333,1.104,1.1046,1.099,1.0968,1.0931,1.0899,1.0896,1.0841,1.0821,1.078,1.073,1.0713,1.0659,1.0594,1.0561,1.0546,1.0509,1.0522,1.0525,1.0528,1.0539,1.0405,1.0538,1.0538,1.0537,1.0536,1.0536,0,1.1196,1.1155,1.1136,1.1087,1.107,1.101,1.0966,1.0955,1.0941,1.0897,1.0872,1.0845,1.0818,1.0749,1.0715,1.0716,1.0684,1.071,1.0708,1.07,1.0575,1.057,1.0736,1.0736,1.0736,1.0736,1.0736,1.0736,1.1274,1.1281,1.1237,1.1225,1.1183,1.1167,1.1146,1.1116,1.108,1.1054,1.1032,1.0988,1.0933,1.0895,1.0867,1.0847,1.0838,1.0873,1.0843,1.0728,1.0708,1.069,1.0685,1.0872,1.0873,1.0968,1.0969,1.097]},{"header":{"parameterUnit":"m.s-1","parameterCategory":1,"la1":30.2991,"la2":30.254,"lo1":-89.0895,"lo2":-89.0444,"dy":0.0017,"dx":0.0017,"nx":28,"ny":28,"refTime":"2025-07-17T21:00:00:Z","depth":0,"parameterNumber":3,"parameterNumberName":"V-component_of_WINDS"},"data":[0,0,0,0,0,0,0,0,0,0,0,0,0,0,0,0,0,0,0,0,0,0,0,0,0,0,0,0,0,0,0,0,0,0,0,0,0,0,0,0,0,0,0,0,0,0,0,0,0,0,0,0,0,0,0,0,0,0,6.0614,6.0617,0,6.0869,6.0872,6.0874,6.0888,6.0885,6.0882,6.0879,6.1131,6.114,6.1149,0,0,0,0,0,0,0,0,0,0,0,0,0,6.013,6.0139,6.0614,6.0617,6.0621,6.0868,6.0872,6.0875,6.0888,6.0885,6.0881,6.0878,6.1128,6.1139,6.115,0,0,0,0,0,0,0,0,0,0,0,0,0,6.0357,6.0142,6.0614,6.0657,6.0664,6.0867,6.0872,6.0876,6.0889,6.0885,6.088,6.0876,6.1124,6.1138,6.1151,6.1326,0,0,6.1195,6.1201,0,0,0,0,0,0,0,0,6.0345,6.0375,6.0648,6.0655,6.0662,6.0842,6.0793,6.1027,6.089,6.0803,6.0879,6.0874,6.1038,6.1059,6.1116,6.1338,6.1349,6.1196,6.1204,6.1211,6.1215,0,0,0,0,0,0,0,6.0329,6.0364,6.0715,6.0651,6.066,6.0661,6.0688,6.0837,6.0941,6.081,6.0812,6.0842,6.1041,6.1102,6.1122,6.1353,6.1196,6.1208,6.1217,6.1222,6.1728,6.1733,0,0,0,0,0,0,6.0306,6.0351,6.0706,6.0722,6.049,6.0673,6.0704,6.0789,6.094,6.0959,6.0846,6.0842,6.108,6.1105,6.113,6.1343,6.121,6.1224,6.1232,6.1723,6.1729,6.1735,0,0,0,0,0,0,6.0295,6.0338,6.0696,6.0537,6.0583,6.0686,6.0781,6.0796,6.0857,6.0967,6.0985,6.089,6.1077,6.1111,6.1278,6.1352,6.123,6.1243,6.1717,6.1725,6.1732,6.1771,0,0,0,0,0,0,6.0282,6.0334,6.0404,6.0539,6.0592,6.0842,6.0786,6.0804,6.0883,6.088,6.1013,6.1031,6.1077,6.1256,6.1292,6.1369,6.1254,6.1711,6.1721,6.1729,6.1764,6.1779,6.1792,0,0,0,0,0,6.0264,6.0403,6.0407,6.045,6.0682,6.0847,6.0876,6.0929,6.0889,6.0958,6.1028,6.1027,6.1339,6.1273,6.1313,6.1396,6.1706,6.1718,6.1729,6.1757,6.1776,6.1792,0,0,0,0,0,0,6.0272,6.0422,6.0428,6.0616,6.0719,6.0849,6.0938,6.0947,6.1062,6.1054,6.1111,6.1141,6.1306,6.1368,6.1293,6.1572,6.1518,6.1537,6.1526,6.1545,6.1559,6.1539,6.1266,0,0,0,0,0,6.0296,6.042,6.0544,6.0697,6.0749,6.0835,6.0908,6.094,6.1047,6.109,6.1172,6.1274,6.1395,6.1473,6.1591,6.1773,6.18,6.185,6.1864,6.1875,6.1891,6.1989,6.2011,6.1771,6.1771,6.1771,0,0,6.0345,6.0443,6.0518,6.0701,6.0785,6.0909,6.0871,6.1004,6.1096,6.1109,6.1273,6.1336,6.1453,6.1628,6.1709,6.1685,6.1963,6.1889,6.1897,6.1907,6.2003,6.2025,6.2045,6.1779,6.1777,6.1776,0,0,6.05,6.0587,6.0724,6.0809,6.0936,6.0992,6.1025,6.1154,6.1197,6.1363,6.1375,6.1482,6.169,6.1773,6.1842,6.2025,6.2027,6.2062,6.2136,6.2231,6.225,6.2267,6.233,6.2352,6.2077,6.2077,6.2077,0,6.0545,6.0736,6.0792,6.0926,6.1005,6.1025,6.1162,6.124,6.1398,6.145,6.1421,6.1681,6.1762,6.1955,6.2,6.2056,6.2092,6.2046,6.2243,6.2261,6.2277,6.2338,6.2362,6.2081,6.208,6.208,6.208,0,6.0783,6.0915,6.101,6.1165,6.1254,6.1388,6.1462,6.1545,6.1568,6.1626,6.1791,6.1889,6.2025,6.2073,6.2097,6.2269,6.225,6.2232,6.2178,6.2303,6.236,6.2384,6.2085,6.2084,6.2083,6.2082,0,0,6.095,6.1134,6.1167,6.1237,6.1379,6.148,6.1613,6.1749,6.1818,6.1926,6.2037,6.2212,6.2195,6.2273,6.2306,6.239,6.2526,6.2361,6.2364,6.2386,6.2719,6.2731,6.2757,6.2528,6.2533,6.2537,6.2708,0,6.1118,6.136,6.1414,6.162,6.1741,6.1761,6.1877,6.1974,6.2031,6.2139,6.22,6.2323,6.2293,6.234,6.2424,6.2491,6.2593,6.248,6.2629,6.2634,6.2598,6.2788,6.2802,6.2959,6.2731,6.2735,6.2738,0,6.1347,6.1463,6.1682,6.1806,6.1858,6.1962,6.209,6.2194,6.2303,6.2338,6.2426,6.2449,6.2585,6.2525,6.2711,6.2633,6.2697,6.2739,6.2746,6.2761,6.2692,6.2806,6.3011,6.3033,6.2775,6.2772,6.2769,0,6.1444,6.1654,6.1812,6.1871,6.202,6.2092,6.2156,6.2262,6.234,6.245,6.25,6.2624,6.2691,6.2785,6.284,6.2792,6.3021,6.2966,6.3051,6.305,6.3097,6.3093,6.3314,6.3141,6.3141,6.314,6.314,0,6.1625,6.1758,6.1857,6.1954,6.2102,6.2161,6.2304,6.2368,6.2462,6.2569,6.2593,6.2692,6.2759,6.2867,6.291,6.3056,6.3087,6.3116,6.3126,6.3114,6.311,6.3155,6.3145,6.3147,6.3145,6.3144,6.3143,0,6.1758,6.183,6.2003,6.2131,6.2165,6.2269,6.2376,6.2469,6.2526,6.2661,6.2695,6.2784,6.2912,6.2977,6.3135,6.3164,6.3328,6.3332,6.3292,6.3295,6.3376,6.3367,6.3632,6.3669,6.3473,6.3475,6.3476,0,6.1869,6.1972,6.211,6.2185,6.2252,6.2372,6.2452,6.2512,6.2594,6.2725,6.2801,6.2931,6.3038,6.324,6.3317,6.3437,6.3443,6.3527,6.3461,6.3445,6.3442,6.3435,6.3444,6.3539,6.354,6.3542,6.3543,0,6.2056,6.2087,6.2203,6.2331,6.2426,6.2528,6.2629,6.2688,6.2764,6.2854,6.2986,6.3069,6.3232,6.3359,6.3485,6.3548,6.3557,6.3564,6.3589,6.3577,6.3549,6.3564,6.3322,6.3557,6.3556,6.3555,6.3554,6.3553,6.2181,6.2272,6.2384,6.2511,6.2594,6.2687,6.2781,6.285,6.2962,6.3101,6.3129,6.3268,6.3372,6.3543,6.361,6.3717,6.3699,6.3736,6.3746,6.3754,6.3757,6.3533,6.374,6.374,6.374,6.374,6.3739,0,6.2368,6.2441,6.2557,6.2699,6.2798,6.2802,6.2913,6.2995,6.3118,6.3216,6.3321,6.3471,6.3594,6.368,6.3804,6.3874,6.3881,6.3904,6.3899,6.3912,6.3767,6.3732,6.3896,6.3896,6.3896,6.3896,6.3896,6.3896,6.2477,6.2632,6.2675,6.2869,6.294,6.3079,6.3142,6.3227,6.3305,6.3473,6.3577,6.3633,6.3725,6.3856,6.3968,6.3989,6.4033,6.4056,6.4077,6.394,6.3923,6.3907,6.3874,6.4065,6.4066,6.4214,6.4215,6.4216]}]]